Regional Weather Roundup
Issued by NWS

Home | Current Version | Previous Version | Text Only | Print | Product List | Glossary On
Versions: 1 2 3 4 5 6 7 8 9 10 11 12 13 14 15 16 17 18 19 20 21 22 23 24 25 26 27 28 29 30 31 32 33 34 35 36 37 38 39 40 41 42 43 44 45 46 47 48 49 50
000
ASUS45 KBOU 251807
RWRCO

WEATHER ROUNDUP FOR COLORADO
NATIONAL WEATHER SERVICE DENVER/BOULDER CO
1100 AM MST SAT FEB 25 2017

NOTE: "FAIR" INDICATES FEW OR NO CLOUDS BELOW 12000 FEET WITH NO
SIGNIFICANT WEATHER AND/OR OBSTRUCTIONS TO VISIBILITY.

COZ001>005-013-030-031-251900-
...NORTHWEST COLORADO...

CITY           SKY/WX    TMP DP  RH WIND       PRES   REMARKS
CRAIG          FAIR      20   9  62 CALM      29.99F
HAYDEN         FAIR      16   7  67 N5        29.96F WCI   9
MEEKER         PTSUNNY   18   8  65 CALM      29.99F
MOUNT WERNER   NOT AVBL
STEAMBOAT SPGS CLOUDY    17   6  63 N3        29.95S
WALDEN         NOT AVBL
$$

COZ006>008-011-251900-
...WEST CENTRAL VALLEYS...

CITY           SKY/WX    TMP DP  RH WIND       PRES   REMARKS
GRAND JUNCTION FAIR      29  14  53 SW3       30.08S
MONTROSE       FAIR      29   3  33 NW3       30.07F
EAGLE          MOSUNNY   25   9  50 W5        29.99F WCI  19
RIFLE          FAIR      21  12  68 CALM      30.05F
DELTA          FAIR      32  10  40 E6        30.08F WCI  26
NUCLA          FAIR      32   3  29 SW6       30.09F WCI  26
$$

COZ017>023-064>068-251900-
...SOUTHWEST COLORADO...

CITY           SKY/WX    TMP DP  RH WIND       PRES   REMARKS
DURANGO        FAIR      28   3  34 W8        30.03F WCI  20
CORTEZ         PTSUNNY   31   3  30 SW3       30.06F
PAGOSA SPRINGS FAIR      24   2  38 S14       30.00F WCI  12
TELLURIDE      PTSUNNY   16  -2  45 CALM      29.97S
WOLF CREEK PAS CLOUDY     3   1  92 S18G28    29.87S FOG     WCI -17
$$

COZ009-010-012-014-032>034-037-058>063-251900-
...CENTRAL COLORADO...

CITY           SKY/WX    TMP DP  RH WIND       PRES   REMARKS
ASPEN          PTSUNNY   18   0  45 N6        29.91F WCI  10
BUENA VISTA    FAIR      24  -8  24 W23G31    29.87F WCI   9
COPPER MTN     NOT AVBL
BERTHOUD PASS  CLOUDY    -6 -15  65 MISG      29.65S HAZE
COTTONWOOD PAS FAIR      18 -13  25 W22G37    29.78F WCI   0
GUNNISON       FAIR       8   0  69 E5        30.01F WCI   0
KREMMLING      PTSUNNY   23  10  58 SW9G16    29.92F WCI  13
LEADVILLE      FAIR      10 -12  36 W15G26    29.80F WCI  -7
MONARCH PASS     N/A      0  -6  78 W30G46    29.87S WCI -26
SALIDA         FAIR      27  -9  20 W23G32    29.99S WCI  12
SUNLIGHT       NOT AVBL
WILKERSON PASS FAIR      10 -15  31 W10G23    29.74S WCI  -3
$$

COZ069>075-251900-
...SAN LUIS VALLEY/SANGRE DE CRISTO MOUNTAINS...

CITY           SKY/WX    TMP DP  RH WIND       PRES   REMARKS
ALAMOSA        FAIR      24   4  42 VRB3      29.95F
LA VETA PASS   FAIR      18   0  45 SW24G39   29.80F WCI   0
SAGUACHE       FAIR      27  -4  26 NW21      29.93F WCI  13
$$

COZ035-036-038>040-251900-
...NORTHERN COLORADO FRONT RANGE...

CITY           SKY/WX    TMP DP  RH WIND       PRES   REMARKS
DENVER INTL AP PTSUNNY   31   4  31 S6        29.88F WCI  25
DMNS CITY PARK   N/A     32  -4  20 MISG      29.87F
AURORA         PTSUNNY   30   2  30 SW6       29.88F WCI  24
FRONT RANGE AP PTSUNNY   32   5  32 S9        29.89  WCI  24
ERIE MUNI ARPT FAIR      32   8  35 CALM      29.88F
BOULDER MUN AP FAIR      28  12  50 NE3       29.87F
CENTENNIAL     FAIR      29   4  34 VRB6      29.86F WCI  23
BROOMFIELD     PTSUNNY   32   7  34 SW14      29.87F WCI  22
FORT COLLINS   FAIR      25  16  68 E5        29.91  WCI  19
LONGMONT       FAIR      34  11  39 E3        29.91F
$$

COZ041-046-047-076>085-087-088-251900-
...PIKES PEAK/PALMER DIVIDE AND SOUTHERN FOOTHILLS...

CITY           SKY/WX    TMP DP  RH WIND       PRES   REMARKS
COLO. SPRINGS  FAIR      32  -2  23 S6        29.88F WCI  26
A. F. ACADEMY  FAIR      31  -1  25 W12G20    29.85F WCI  22
SCHRIEVER AFB  FAIR      30  -4  23 S7G20     29.89F WCI  23
ELLICOTT       NOT AVBL
FALCON         FAIR      29   0  29 S7        29.87F WCI  22
FORT CARSON    FAIR      33   4  29 E10       29.87F WCI  24
LIMON          FAIR      32   3  29 NW12      29.91F WCI  23
MONUMENT HILL  FAIR      27   1  33 S6        29.85F WCI  20
TRINIDAD       FAIR      35   0  22 SE7       29.92F WCI  29
$$

COZ042>045-048>051-090-091-251900-
...NORTHEAST COLORADO...

CITY           SKY/WX    TMP DP  RH WIND       PRES   REMARKS
GREELEY ARPT   FAIR      27  21  78 VRB3      29.94F
AKRON          FAIR      28  17  63 W8        29.93F WCI  20
BURLINGTON     FAIR      37  15  40 N9G17     29.96F
WRAY           NOT AVBL
STERLING       FAIR      28  18  64 N6        29.94F WCI  22
HOLYOKE        FAIR      34  19  55 NW13      29.96S WCI  25
FORT MORGAN    FAIR      27  18  69 CALM      29.95F
$$

COZ086-089-092>099-251900-
...SOUTHEAST COLORADO...

CITY           SKY/WX    TMP DP  RH WIND       PRES   REMARKS
PUEBLO         FAIR      41  -1  17 W15       29.93F
LA JUNTA       FAIR      38  12  34 W9G22     29.97F
LAMAR          FAIR      39  15  37 NW8       29.98F
SPRINGFIELD      N/A     39  10  30 S9G18     29.97F
$$



USA.gov is the U.S. government's official web portal to all federal, state and local government web resources and services.